{"data":{"norad_id":62892,"epoch":"2026-05-24T23:46:14.896416Z","epoch_age_seconds":89966,"freshness":"FRESH","line1":"1 62892U 25024P   26144.99045019  .00024162  00000+0  88409-3 0  9990","line2":"2 62892  42.9967 254.5909 0002871 261.2125  98.8402 15.27599263 73939","mean_motion":15.27599263,"eccentricity":0.0002871,"inclination_deg":42.9967,"raan_deg":254.5909,"arg_perigee_deg":261.2125,"mean_anomaly_deg":98.8402,"bstar":0.00088409,"rev_number":7393,"period_min":94.265560011598,"perigee_km":481.02158632563,"apogee_km":484.96124626227,"semimajor_km":6861.128416294,"source":"CELESTRAK","updated_at":"2026-05-25T13:38:19.791074Z"}}